DECAYED
Showing default

NINJASAT, 58341 (Decayed)

Orbit data source: Space-Track

NINJASAT, 58341 was a Japanese payload satellite in LEO that was launched on Sat, 11 Nov 2023 UTC via an FALCON 9 launch vehicle from the Air Force Western Test Range (AFWTR). Payload-class satellites include a variety of spacecraft equipped with specific instruments for various scientific and technological missions. These include communications satellites like Starlink; space stations such as the ISS; scientific satellites like the Hubble; Earth observation satellites from companies like Planet Labs, Umbra, and HawkEye 360; GPS; miniature CubeSats for education and research; and military/defense satellites.

Not visible in the next 10 days
Identifier
58341, 2023-174CP
Orbit
Decayed
Country
Flag of JPJP / JPN
Related business
Manufacturer
NanoAvionics
Mission
Decayed Civil Astronomy
Bus & Motor
CUBESAT 6U, Unknown motor
Mass
10 kg wet, ~10 kg dry
Launch date (UTC)
2023-11-11 (3 years ago)
Launch vehicle
FALCON 9
Launch site
Air Force Western Test Range (AFWTR)
Object type
Payload
Rocket body
Debris
Shape & HBR
Box + 2 Pan, 0.2 m
Radar Cross Section
0.092 m², Medium (>0.1 m² and < 1m²)

Expand to show TLE details & history
Last TLE update: 1 year ago

TLE from 1 year ago
0 NINJASAT
1 58341U 23174CP  25261.07233303  .06117457  25088-5  11108-2 0  9997
2 58341  97.4046 354.5669 0015461 290.4391  69.5244 16.32106746104557
Epoch: 2025-09-18T01:44Z
TLE epoch observation values (Epoch: 2025-09-18T01:44:09.573Z)
Latitude
-0.00002°
Longitude
-28.71216°
Altitude
186.587 km
Speed
7.796 km/s
True Right ascension
23h 38m 16s
True Declination
0° 00' 00"
Sunlit
Object was in full shadow at epoch
Visualization orbit readout
Latitude
Unknown
Longitude
Unknown
Altitude
Unknown
Speed
Unknown
Apparent Right ascension
Unknown
Apparent Declination
Unknown
Sunlit
N/A
Visualization observer readout
Local Sidereal Time
07:12:36
Azimuth
Unknown
Elevation
Unknown
Doppler factor
Unknown
Orbital elements
Apogee altitude
193.848 km
Perigee altitude
173.557 km
Semi-major axis
6,561.839 km
Eccentricity
0.00155
Inclination
97.4046°
RAAN
354.5669°
Arg. of periapsis
290.4391°
True anomaly
69.69049°
Mean anomaly
69.5244°
Eccentric anomaly
69.60743°
Mean motion
4.08324 °/min
Orbital period
88.17 mins
BSTAR
0.0011108
Loading maneuver chart data...
Computing Atmospheric mass density...
Loading historical data...
Loading historical data...
Loading historical data...
Loading historical data...
Loading historical data...
Loading historical data...
Loading historical data...

Documentation

Showing up to 5 results
|